Kosmos-1546

operational
NORAD ID: 14867 Int'l Des: 1984-031 Owner: PVO Country: SU
HEOCIRCULARGSO

About Kosmos-1546

Description loading...

Live Position

Loading 3D Globe...

Upcoming Passes

Altitude History

Altitude vs Time

uPlot chart will show altitude changes over time

Two-Line Element Set

1 14867U 84031A 26061.62020833 -.00000124 00000-0 00000-0 0 9999
2 14867 8.8813 312.1384 0025169 13.2127 134.8342 1.00257658 46309
Epoch: Mar 2, 2026 • Age: 29 hours

Current Status

Altitude 35684.3 km
Velocity 3.08 km/s
Sub-Earth Point 0.82°N, 76.41°E
Launch Date Mar 29, 1984
Age 41.9 years
Type other

Technical Details

Classification Payload
Mass 1250.00 kg
Dry Mass 1150.00 kg
Total Mass 1250.00 kg
Length 4.00 m
Diameter 2.00 m
Span 5.00 m
Shape Cyl + 2 Pan
Manufacturer NPOL/KOMET
Bus Type Oko
Phase Status In Orbit
Owner/State PVO/SU

Large Constellations

Loading constellations...